AirNav   Air Wisconsin Up To $57,000 Bonus
 
 948 users online  

AL05 Sehoy Airport
Hurtsboro, Alabama, USA

GOING TO HURTSBORO?


FAA INFORMATION EFFECTIVE 31 DECEMBER 2020

Location

FAA Identifier: AL05
Lat/Long: 32-13-16.8096N 085-28-18.4188W
32-13.280160N 085-28.306980W
32.2213360,-85.4717830
(estimated)
Elevation: 331 ft. / 101 m (estimated)
Variation: 01E (1985)
From city: 3 miles SW of HURTSBORO, AL
Time zone: UTC -6 (UTC -5 during Daylight Saving Time)
Zip code: 36860

Airport Operations

Airport use: Private use. Permission required prior to landing
Control tower: no
ARTCC: ATLANTA CENTER
FSS: ANNISTON FLIGHT SERVICE STATION
Attendance: UNATNDD
Wind indicator: lighted
Segmented circle: yes
Lights: RWY LGTS ON REQ; MON-FRI FROM 0730 TO 1530 CALL 334-253-2100. AFTER HRS AND WKENDS CALL 706-773-3167.
Beacon: white-green (lighted land airport)
ROTG BCN ON REQ; MON-FRI FROM 0730 TO 1530 CALL 334-253-2100. AFTER HRS AND WKENDS CALL 706-773-3167.

Nearby radio navigation aids

VOR radial/distance  VOR name  Freq  Var
TGEr146/18.7TUSKEGEE VOR/DME117.3002E
EUFr311/23.8EUFAULA VORTAC109.2002E
LSFr257/25.2LAWSON VOR/DME111.4002W
CSGr223/33.0COLUMBUS VORTAC117.1001E

 
NDB name  Hdg/Dist  Freq  Var  ID
LAWSON261/23.233502WAWS .- .-- ...
BLOOD058/39.936504WTOI - --- ..

Airport Services

Parking: hangars

Runway Information

Runway 4/22

Dimensions: 5000 x 75 ft. / 1524 x 23 m
Surface: asphalt, in good condition
Runway edge lights: medium intensity
RUNWAY 4  RUNWAY 22
Latitude: 32-12.963720N32-13.596600N
Longitude: 085-28.617360W085-27.996600W
Elevation: 331.0 ft.324.0 ft.
Traffic pattern: leftleft
Markings: basic, in good conditionbasic, in good condition
Visual slope indicator: 2-box VASI on left2-box VASI on left
Touchdown point: yes, no lightsyes, no lights
Obstructions: 52 ft. trees, 800 ft. from runway, 300 ft. left of centerline, 11:1 slope to clear57 ft. trees, 750 ft. from runway, 275 ft. left of centerline, 9:1 slope to clear

Airport Ownership and Management from official FAA records

Ownership: Privately-owned
Owner: STEVE WILLIAMS
1637 BARRY AVE
BIRMINGHAM, AL 35209
Phone 706-464-3787
Manager: STEVE WILLIAMS
1637 BARRY AVE
BIRMINGHAM, AL 35209
Phone 706-464-3787

Airport Operational Statistics

Aircraft operations: avg 22/month *
92% local general aviation
8% transient general aviation
* for 12-month period ending 07 February 1990

Additional Remarks

FOR CD CTC ATLANTA APCH AT 678-364-6132, WHEN APCH CLSD CTC ATLANTA ARTCC AT 770-210-7692.

Instrument Procedures

There are no published instrument procedures at AL05.

Some nearby airports with instrument procedures:

06A - Moton Field Municipal Airport (18 nm NW)
11A - Clayton Municipal Airport (20 nm S)
KAUO - Auburn University Regional Airport (24 nm N)
KEUF - Weedon Field Airport (24 nm SE)
KLSF - Lawson Army Airfield (Fort Benning) (25 nm E)
 
Loc | Ops | Rwys | IFR | FBO | Links
Com | Nav | Svcs | Stats | Notes
Area around AL05 (Sehoy Airport)
 
Road maps at: MapQuest Bing Google
 
Aerial photo
WARNING: Photo may not be current or correct
Aerial photo of AL05 (Sehoy Airport)
Photo courtesy of AirNav, LLC
Photo taken 05-May-2011
looking west.

Do you have a better or more recent aerial photo of Sehoy Airport that you would like to share? If so, please send us your photo.

 
Sectional chart

 
Airport distance calculator
Flying to Sehoy Airport? Find the distance to fly.

From to AL05

Sunrise and sunset
Times for 17-Jan-2021
 Local
(UTC-6)
 Zulu
(UTC)
Morning civil twilight06:1712:17
Sunrise06:4412:44
Sunset17:0023:00
Evening civil twilight17:2723:27

Current date and time
Zulu (UTC)  18-Jan-2021 02:35:37
Local (UTC-6)  17-Jan-2021 20:35:37
 
METAR
KEUF 
24nm SE 
180158Z AUTO 18003KT 10SM CLR 03/M01 A2999 RMK AO2 SLP155 I1000 T00331011
KAUO 
24nm N 
180156Z AUTO 18004KT 10SM CLR 06/M02 A2996 RMK AO2 SLP172 T00611017
KLSF 
25nm E 
180156Z AUTO 11005KT 10SM CLR 01/M02 A2996 RMK AO2 SLP153 T00091023 $
KCSG 
32nm NE 
180151Z AUTO 00000KT 10SM CLR 06/M01 A2996 RMK AO2 SLP147 T00561011
KTOI 
36nm SW 
180153Z AUTO 21004KT 10SM CLR 05/M01 A2998 RMK AO2 SLP153 T00501011
KMXF 
46nm W 
180156Z AUTO 20004KT 10SM SCT080 BKN095 08/M01 A2995 RMK AO2 SLP146 T00791006 $
KMGM 
47nm W 
180153Z 20004KT 10SM CLR 08/M01 A2996 RMK AO2 SLP147 T00831011
TAF
NOTAMs
Click for the latest NOTAMs
NOTAMs are issued by the DoD/FAA and will open in a separate window not controlled by AirNav.

 

 
 

Would you like to see your business listed on this page?

 If your business provides an interesting product or service to pilots, flight crews, aircraft, or users of the Sehoy Airport, you should consider listing it here.  To start the listing process, click on the button below
 
Add a business
 

Other Pages about Sehoy Airport

Update a link
 
Copyright © AirNav, LLC. All rights reserved. Privacy Policy  Contact